Miscellaneous Local Product
Issued by NWS North Platte, NE

Home | Current Version | Previous Version | Graphics & Text | Print | Product List | Glossary On
Versions: 1 2 3 4 5 6 7 8 9 10 11 12 13 14 15 16 17 18 19 20 21 22 23 24 25 26 27 28 29 30 31 32 33 34 35 36 37 38 39 40 41 42 43 44 45 46 47 48 49 50
040
AXUS43 KLBF 032010
MISLBF


WESTERN AND NORTH CENTRAL NEBRASKA HOURLY WEATHER ROUNDUP
NATIONAL WEATHER SERVICE NORTH PLATTE NE
300 PM CDT TUE MAY 03 2016

NOTE: "FAIR" INDICATES FEW OR NO CLOUDS BELOW 12,000 FEET WITH NO
SIGNIFICANT WEATHER AND/OR OBSTRUCTIONS TO VISIBILITY.

NOTE: STATIONS NOT REPORTING VARIABLES SUCH AS SKY/WEATHER OR
PRESSURE ARE PROVIDED BY RAWS AND APRS NETWORKS AND ARE NOT UNDER
NATIONAL WEATHER SERVICE QUALITY CONTROL.

...OBSERVATIONS IN AND NEAR THE EASTERN PANHANDLE OF NEBRASKA...

CITY           SKY/WX    TMP DP  RH WIND       PRES   REMARKS
PINE RIDGE     SUNNY     69  33  26 N14G22    30.09F
CHADRON        SUNNY     71  35  26 N8        30.10F
ALLIANCE       SUNNY     67  30  25 N18       30.11S
SIDNEY         SUNNY     68  35  29 N15       30.14F
CRESCENT LAKE    N/A     67  34  29 N13G23      N/A
BIG SPRINGS      N/A     63  41  44 N5          N/A
$$

...OBSERVATIONS IN NORTHERN NEBRASKA AND FAR SOUTHERN SOUTH DAKOTA...

CITY           SKY/WX    TMP DP  RH WIND       PRES   REMARKS
WINNER         FAIR      71  43  36 NW13      30.01F
VALENTINE      SUNNY     68  36  30 NW13      30.04F
THEDFORD       SUNNY     67  40  37 N9        30.07S
AINSWORTH      SUNNY     66  39  37 NW13G21   30.04S
O`NEILL        MOSUNNY   68  41  37 W13       30.01F
ORD            MOSUNNY   66  42  41 NW12      30.02F
BROKEN BOW     MOSUNNY   65  42  43 W14       30.05F
VALENTINE NWR    N/A     66  40  38 N12G20      N/A
BUTTE            N/A     65  44  46 W16G23      N/A
HALSEY           N/A     68  39  34 NW8         N/A
CHAMBERS         N/A     68  43  40 N6G13       N/A
EWING            N/A     67  45  44 W13G23      N/A
$$

...OBSERVATIONS IN SOUTHWEST NEBRASKA AND FAR NORTHEAST COLORADO...

CITY           SKY/WX    TMP DP  RH WIND       PRES   REMARKS
HOLYOKE        FAIR      66  37  34 N16G22    30.13F
IMPERIAL       SUNNY     65  38  36 N14       30.10F
OGALLALA       SUNNY     65  34  30 NW6G18    30.10F
NORTH PLATTE   SUNNY     66  42  41 VRB5      30.07F
MCCOOK         MOSUNNY   65  45  48 NW9       30.08F
LEXINGTON      MOSUNNY   65  42  43 N6        30.06S
PAXTON           N/A     62  46  55 NW6         N/A
STAPLETON        N/A     67  42  39 CALM        N/A
GOTHENBURG       N/A     64  37  37 NW8         N/A
CALLAWAY         N/A     62  44  52 NW7         N/A
$$

...OBSERVATIONS IN CENTRAL LINCOLN COUNTY AREA...

CITY           SKY/WX    TMP DP  RH WIND       PRES   REMARKS
N.P. AIRPORT   SUNNY     66  42  41 VRB5      30.07F
N.P. DOWNTOWN    N/A     65  41  41 NW3G12      N/A
N.P. SOUTHEAST   N/A     66  41  40 NW3         N/A
N.P. HILLCREST   N/A     65  38  36 NW9G20      N/A
$$

...SOME OBSERVATIONS FROM AROUND THE REGION...

CITY           SKY/WX    TMP DP  RH WIND       PRES   REMARKS
DENVER         MOSUNNY   64  31  28 N15G24    30.22S
LARAMIE        MOSUNNY   53  32  44 NW10G21   30.29S
CHEYENNE       MOSUNNY   59  32  36 NW20      30.23F
SCOTTSBLUFF    SUNNY     71  33  24 N20       30.12F
RAPID CITY     SUNNY     72  41  32 N21       30.08F
BISMARCK       SUNNY     76  38  25 N21G31    29.97S
PIERRE         SUNNY     73  41  31 NW18G25   29.97F
SIOUX FALLS    PTSUNNY   69  45  41 W16G33    29.90F
OMAHA          PTSUNNY   70  41  34 W13       29.98F
GRAND ISLAND   MOSUNNY   67  38  34 W6        30.04F
KANSAS CITY    MOSUNNY   66  39  37 SW9       30.02F
WICHITA        MOSUNNY   70  43  37 SW9       30.03F
OKLAHOMA CITY  PTSUNNY   70  44  39 VRB7      30.06F
DALLAS         MOSUNNY   73  45  36 VRB6G17   30.06F
AMARILLO       CLOUDY    69  37  30 NW15G21   30.12F
DODGE CITY     MOSUNNY   65  39  38 NW10      30.06F
HAYS           PTSUNNY   66  43  42 NW13      30.05F
GOODLAND       MOSUNNY   65  40  39 N14G23    30.11S
$$




USA.gov is the U.S. government's official web portal to all federal, state and local government web resources and services.